TimeHST,TemperatureF,Dew PointF,Humidity,Sea Level PressureIn,VisibilityMPH,Wind Direction,Wind SpeedMPH,Gust SpeedMPH,PrecipitationIn,Events,Conditions,WindDirDegrees,DateUTC
12:53 AM,71.1,60.1,68,30.00,10.0,SW,5.8,-,N/A,,Scattered Clouds,230,2013-08-24 10:53:00
1:53 AM,70.0,57.9,65,29.99,10.0,SW,5.8,-,N/A,,Mostly Cloudy,230,2013-08-24 11:53:00
2:53 AM,70.0,57.9,65,29.99,10.0,SW,6.9,-,N/A,,Scattered Clouds,230,2013-08-24 12:53:00
3:53 AM,70.0,57.0,63,29.99,10.0,SW,6.9,-,N/A,,Mostly Cloudy,230,2013-08-24 13:53:00
4:53 AM,69.1,57.0,65,29.99,10.0,SW,5.8,-,N/A,,Mostly Cloudy,230,2013-08-24 14:53:00
5:53 AM,70.0,57.9,65,30.01,10.0,WSW,5.8,-,N/A,,Mostly Cloudy,240,2013-08-24 15:53:00
6:53 AM,71.1,59.0,66,30.02,10.0,SW,5.8,-,N/A,,Mostly Cloudy,220,2013-08-24 16:53:00
7:53 AM,72.0,59.0,64,30.03,10.0,SW,5.8,-,N/A,,Mostly Cloudy,230,2013-08-24 17:53:00
8:53 AM,81.0,66.0,60,30.03,10.0,Calm,Calm,-,N/A,,Mostly Cloudy,0,2013-08-24 18:53:00
9:53 AM,82.9,66.9,58,30.03,10.0,North,4.6,-,N/A,,Mostly Cloudy,360,2013-08-24 19:53:00
10:53 AM,82.0,66.9,60,30.02,10.0,NE,10.4,-,N/A,,Scattered Clouds,40,2013-08-24 20:53:00
11:53 AM,82.0,64.9,56,30.01,10.0,NE,11.5,-,N/A,,Scattered Clouds,40,2013-08-24 21:53:00
12:44 PM,81.0,66.0,60,30.00,10.0,ENE,12.7,-,N/A,,Mostly Cloudy,60,2013-08-24 22:44:00
12:53 PM,81.0,66.9,62,30.00,10.0,ENE,11.5,-,N/A,,Mostly Cloudy,70,2013-08-24 22:53:00
1:53 PM,82.0,66.0,58,29.98,10.0,East,11.5,-,N/A,,Mostly Cloudy,90,2013-08-24 23:53:00
2:53 PM,81.0,66.9,62,29.98,10.0,ENE,9.2,-,N/A,,Mostly Cloudy,70,2013-08-25 00:53:00
3:41 PM,80.1,66.0,62,29.97,10.0,ENE,5.8,-,N/A,,Mostly Cloudy,70,2013-08-25 01:41:00
3:53 PM,80.1,66.9,64,29.98,10.0,East,8.1,-,N/A,,Mostly Cloudy,90,2013-08-25 01:53:00
4:53 PM,80.1,66.9,64,29.97,10.0,ENE,8.1,-,N/A,,Mostly Cloudy,60,2013-08-25 02:53:00
5:00 PM,-9999,-9999,N/A,29.98,-9999.0,North,-9999.0,-,N/A,,Unknown,0,2013-08-25 03:00:00
5:10 PM,81.0,70.0,69,29.98,10.0,ENE,4.6,-,N/A,,Scattered Clouds,60,2013-08-25 03:10:00
5:53 PM,81.0,70.0,69,29.99,10.0,ENE,4.6,-,N/A,,Scattered Clouds,60,2013-08-25 03:53:00
6:53 PM,81.0,68.0,65,30.01,10.0,NE,6.9,-,N/A,,Scattered Clouds,40,2013-08-25 04:53:00
7:53 PM,79.0,68.0,69,30.02,10.0,Calm,Calm,-,N/A,,Scattered Clouds,0,2013-08-25 05:53:00
8:53 PM,-9999,-9999,N/A,30.04,-9999.0,North,-9999.0,-,N/A,,Unknown,0,2013-08-25 06:53:00
9:53 PM,73.0,68.0,84,30.04,10.0,SW,5.8,-,N/A,,Scattered Clouds,230,2013-08-25 07:53:00
10:53 PM,71.1,61.0,70,30.05,10.0,SW,5.8,-,N/A,,Mostly Cloudy,230,2013-08-25 08:53:00
11:53 PM,71.1,60.1,68,30.04,10.0,SW,5.8,-,N/A,,Mostly Cloudy,230,2013-08-25 09:53:00